Weather History for Smithfield, NC

Change the Weather History Date:

Sunday, April 21, 2013

  Actual Average Record
Temperature  
Mean Temperature 50 °F -  
Max Temperature 62 °F 76 °F 93 °F (1985)
Min Temperature 37 °F 47 °F 29 °F (1983)
Degree Days  
Heating Degree Days 16    
Moisture  
Dew Point 38 °F    
Average Humidity 64    
Maximum Humidity 100    
Minimum Humidity 36    
Precipitation  
Precipitation 0.00 in - - ()
Sea Level Pressure  
Sea Level Pressure 30.42 in    
Wind  
Wind Speed 4 mph (NE)    
Max Wind Speed 13 mph    
Max Gust Speed 23 mph    
Visibility 10 miles    
Events      
Averages and records for this station are not official NWS values.
T = Trace of Precipitation, MM = Missing Value Source: NWS Daily Summary

Daily Weather History Graph

Daily Weather History Graph

Search for Another Location

Airport:

Trip Planner

Search our weather history database for the weather conditions in past years. The results will help you decide how hot, cold, wet, or windy it might be!

Date:

Astronomy

Apr. 21, 2013 Rise Set
Actual Time 6:33 AM EDT 7:51 PM EDT
Civil Twilight 6:06 AM EDT 8:18 PM EDT
Nautical Twilight 5:34 AM EDT 8:50 PM EDT
Astronomical Twilight 5:01 AM EDT 9:23 PM EDT
Moon 3:43 PM EDT (4/21) 3:44 AM EDT (4/21)
Length of Visible Light 14h 12m
Length of Day
13h 18m
Waxing Gibbous, 79% of the Moon is Illuminated
Apr 21
Waxing Gibbous
Apr 25
Full
May 2
Last Quarter
May 9
New
May 18
First Quarter

Hourly Weather History & Observations

Time (EDT) Temp. Windchill Dew Point Humidity Pressure Visibility Wind Dir Wind Speed Gust Speed Precip Events Conditions
12:15 AM 42.8 °F - 42.8 °F 100% 30.28 in 10.0 mi Calm Calm - N/A   Clear
12:35 AM 42.8 °F - 42.8 °F 100% 30.27 in 10.0 mi Calm Calm - N/A   Clear
12:55 AM 41.0 °F - 41.0 °F 100% 30.28 in 10.0 mi Calm Calm - N/A   Clear
1:15 AM 41.0 °F - 41.0 °F 100% 30.28 in 7.0 mi Calm Calm - N/A   Clear
1:35 AM 41.0 °F - 41.0 °F 100% 30.28 in 10.0 mi Calm Calm - N/A   Clear
1:55 AM 41.0 °F - 41.0 °F 100% 30.28 in 7.0 mi Calm Calm - N/A   Clear
2:15 AM 41.0 °F - 41.0 °F 100% 30.28 in 3.0 mi Calm Calm - N/A   Clear
5:15 AM 37.4 °F - 37.4 °F 100% 30.33 in 10.0 mi Calm Calm - N/A   Clear
5:35 AM 37.4 °F - 37.4 °F 100% 30.34 in 10.0 mi Calm Calm - N/A   Clear
5:55 AM 37.4 °F - 37.4 °F 100% 30.36 in 7.0 mi Calm Calm - N/A   Clear
6:15 AM 37.4 °F - 37.4 °F 100% 30.37 in 7.0 mi Calm Calm - N/A   Clear
6:35 AM 39.2 °F - 39.2 °F 100% 30.38 in 10.0 mi Calm Calm - N/A   Clear
6:55 AM 41.0 °F - 41.0 °F 100% 30.39 in 10.0 mi Calm Calm - N/A   Clear
7:15 AM 42.8 °F 41.1 °F 42.8 °F 100% 30.40 in 10.0 mi NNE 3.5 mph - N/A   Clear
7:35 AM 44.6 °F 40.7 °F 44.6 °F 100% 30.41 in 10.0 mi NNE 6.9 mph - N/A   Clear
7:55 AM 46.4 °F 42.9 °F 42.8 °F 87% 30.43 in 10.0 mi NNE 6.9 mph - N/A   Clear
8:15 AM 46.4 °F 41.9 °F 42.8 °F 87% 30.43 in 10.0 mi NNE 9.2 mph - N/A   Clear
8:35 AM 50.0 °F - 42.8 °F 76% 30.44 in 10.0 mi NE 6.9 mph 16.1 mph N/A   Clear
8:55 AM 50.0 °F - 41.0 °F 71% 30.44 in 10.0 mi NE 11.5 mph 18.4 mph N/A   Clear
9:15 AM 51.8 °F - 41.0 °F 67% 30.45 in 10.0 mi NE 11.5 mph 20.7 mph N/A   Clear
9:35 AM 51.8 °F - 39.2 °F 62% 30.46 in 10.0 mi NE 11.5 mph 18.4 mph N/A   Clear
9:55 AM 53.6 °F - 41.0 °F 62% 30.46 in 10.0 mi NE 9.2 mph 17.3 mph N/A   Clear
10:15 AM 53.6 °F - 39.2 °F 58% 30.47 in 10.0 mi ENE 12.7 mph 20.7 mph N/A   Clear
10:35 AM 55.4 °F - 39.2 °F 54% 30.48 in 10.0 mi ENE 11.5 mph 18.4 mph N/A   Clear
10:55 AM 55.4 °F - 39.2 °F 54% 30.48 in 10.0 mi NE 10.4 mph 19.6 mph N/A   Clear
11:15 AM 55.4 °F - 37.4 °F 51% 30.48 in 10.0 mi NE 11.5 mph 21.9 mph N/A   Clear
11:35 AM 55.4 °F - 37.4 °F 51% 30.47 in 10.0 mi East 6.9 mph 19.6 mph N/A   Clear
11:55 AM 57.2 °F - 35.6 °F 44% 30.47 in 10.0 mi NE 12.7 mph 20.7 mph N/A   Clear
12:15 PM 59.0 °F - 35.6 °F 42% 30.47 in 10.0 mi NE 11.5 mph 20.7 mph N/A   Clear
12:35 PM 59.0 °F - 35.6 °F 42% 30.47 in 10.0 mi ENE 9.2 mph 18.4 mph N/A   Clear
12:55 PM 60.8 °F - 35.6 °F 39% 30.46 in 10.0 mi NE 11.5 mph 16.1 mph N/A   Clear
1:15 PM 60.8 °F - 33.8 °F 36% 30.46 in 10.0 mi NE 8.1 mph 16.1 mph N/A   Clear
1:35 PM 60.8 °F - 35.6 °F 39% 30.46 in 10.0 mi NE 10.4 mph 23.0 mph N/A   Clear
1:55 PM 60.8 °F - 35.6 °F 39% 30.46 in 10.0 mi ENE 6.9 mph 17.3 mph N/A   Clear
2:15 PM 60.8 °F - 35.6 °F 39% 30.45 in 10.0 mi NE 10.4 mph 20.7 mph N/A   Clear
2:35 PM 62.6 °F - 35.6 °F 37% 30.44 in 10.0 mi ENE 11.5 mph 19.6 mph N/A   Clear
2:55 PM 62.6 °F - 35.6 °F 37% 30.44 in 10.0 mi ENE 5.8 mph 17.3 mph N/A   Clear
3:15 PM 62.6 °F - 35.6 °F 37% 30.43 in 10.0 mi ENE 6.9 mph 18.4 mph N/A   Clear
3:35 PM 62.6 °F - 35.6 °F 37% 30.42 in 10.0 mi East 6.9 mph - N/A   Scattered Clouds
3:55 PM 62.6 °F - 35.6 °F 37% 30.42 in 10.0 mi NE 5.8 mph 20.7 mph N/A   Scattered Clouds
4:15 PM 60.8 °F - 35.6 °F 39% 30.42 in 10.0 mi East 4.6 mph - N/A   Mostly Cloudy
4:35 PM 60.8 °F - 35.6 °F 39% 30.41 in 10.0 mi East 5.8 mph - N/A   Scattered Clouds
4:55 PM 60.8 °F - 35.6 °F 39% 30.41 in 10.0 mi NE 8.1 mph - N/A   Mostly Cloudy
5:15 PM 60.8 °F - 35.6 °F 39% 30.41 in 10.0 mi NE 5.8 mph - N/A   Mostly Cloudy
5:35 PM 59.0 °F - 37.4 °F 45% 30.41 in 10.0 mi ENE 6.9 mph - N/A   Mostly Cloudy
5:55 PM 60.8 °F - 37.4 °F 42% 30.41 in 10.0 mi East 5.8 mph - N/A   Scattered Clouds
6:15 PM 59.0 °F - 35.6 °F 42% 30.41 in 10.0 mi ENE 6.9 mph 17.3 mph N/A   Scattered Clouds
6:35 PM 59.0 °F - 37.4 °F 45% 30.41 in 10.0 mi ENE 5.8 mph - N/A   Scattered Clouds
6:55 PM 59.0 °F - 37.4 °F 45% 30.42 in 10.0 mi East 6.9 mph - N/A   Scattered Clouds
7:15 PM 57.2 °F - 37.4 °F 48% 30.42 in 10.0 mi NE 4.6 mph - N/A   Clear
7:35 PM 55.4 °F - 37.4 °F 51% 30.43 in 10.0 mi ENE 3.5 mph - N/A   Clear
7:55 PM 53.6 °F - 37.4 °F 54% 30.44 in 10.0 mi ENE 3.5 mph - N/A   Clear
8:15 PM 53.6 °F - 37.4 °F 54% 30.44 in 10.0 mi Calm Calm - N/A   Clear
8:35 PM 51.8 °F - 37.4 °F 58% 30.45 in 10.0 mi Calm Calm - N/A   Clear
8:55 PM 51.8 °F - 37.4 °F 58% 30.46 in 10.0 mi Calm Calm - N/A   Clear
9:15 PM 50.0 °F - 37.4 °F 62% 30.47 in 10.0 mi NE 3.5 mph - N/A   Clear
9:35 PM 50.0 °F - 39.2 °F 66% 30.48 in 10.0 mi Calm Calm - N/A   Clear
9:55 PM 50.0 °F - 39.2 °F 66% 30.48 in 10.0 mi NE 3.5 mph - N/A   Clear
10:15 PM 50.0 °F - 37.4 °F 62% 30.48 in 10.0 mi ENE 3.5 mph - N/A   Clear
10:35 PM 46.4 °F 44.3 °F 39.2 °F 76% 30.48 in 10.0 mi NE 4.6 mph - N/A   Clear
10:55 PM 48.2 °F - 37.4 °F 66% 30.47 in 10.0 mi NE 5.8 mph - N/A   Clear
11:15 PM 46.4 °F 42.4 °F 37.4 °F 71% 30.47 in 10.0 mi NE 8.1 mph - N/A   Clear
11:35 PM 46.4 °F 44.3 °F 37.4 °F 71% 30.47 in 10.0 mi NE 4.6 mph - N/A   Clear
11:55 PM 46.4 °F 45.2 °F 37.4 °F 71% 30.48 in 10.0 mi ENE 3.5 mph - N/A   Clear